Regional Weather Roundup
Issued by NWS

Home | Current Version | Previous Version | Text Only | Print | Product List | Glossary On
Versions: 1 2 3 4 5 6 7 8 9 10 11 12 13 14 15 16 17 18 19 20 21 22 23 24 25 26 27 28 29 30 31 32 33 34 35 36 37 38 39 40 41 42 43 44 45 46 47 48 49 50
000
ASUS44 KJAN 291210
RWRMS

MISSISSIPPI HOURLY WEATHER ROUNDUP
NATIONAL WEATHER SERVICE JACKSON MS
700 AM CDT FRI MAY 29 2015

NOTE: "FAIR: INDICATES FEW OR NO CLOUDS BELOW 12,000 FEET WITH NO
SIGNIFICANT WEATHER AND/OR OBSTRUCTIONS TO VISIBILITY.

MSZ001>002-007>008-010>013-018>021-025>028-034>036-291300-
NORTHWEST MISSISSIPPI

CITY           SKY/WX    TMP DP  RH WIND       PRES   REMARKS
CLARKSDALE       N/A     72  72 100 MISG      30.05S
CLEVELAND      FAIR      72  72 100 SE8       30.03S
GREENWOOD      PTSUNNY   73  69  87 S10       30.06R
6HR MIN TEMP:  71; 6HR MAX TEMP:  73;

GREENVILLE     MOSUNNY   72  70  93 S10       30.02S
6HR MIN TEMP:  70; 6HR MAX TEMP:  72;

OLIVE BRANCH   CLOUDY    70  70 100 S7        30.08R
OXFORD         CLOUDY    68  68 100 S5        30.11R
TUNICA         PTSUNNY   70  68  94 SE6       30.06R FOG
$$

MSZ003>006-009-014>017-022>024-029>033-037>039-291300-
NORTHEAST MISSISSIPPI

CITY           SKY/WX    TMP DP  RH WIND       PRES   REMARKS
COLUMBUS AFB   CLOUDY    70  66  88 S6        30.12R FOG
6HR MIN TEMP:  67; 6HR MAX TEMP:  69;

CORINTH        CLOUDY    70  66  88 S6        30.11R FOG
GOLDN TRIANGLE CLOUDY    70  66  88 S7        30.11R
STARKVILLE     CLOUDY    68  68 100 CALM      30.12R
TUPELO         CLOUDY    70  68  93 S3        30.11R FOG
6HR MIN TEMP:  69; 6HR MAX TEMP:  71;

$$

MSZ040-058-291300-
CENTRAL MISSISSIPPI

CITY           SKY/WX    TMP DP  RH WIND       PRES   REMARKS
JACKSON INTL   CLOUDY    73  70  90 SE7       30.07R
6HR MIN TEMP:  72; 6HR MAX TEMP:  73;

JACKSON HAWKNS PTSUNNY   74  70  87 SE8       30.07S
6HR MIN TEMP:  71; 6HR MAX TEMP:  74;

MERIDIAN KEY   CLOUDY    71  69  93 S5        30.11R
6HR MIN TEMP:  70; 6HR MAX TEMP:  71;

MERIDIAN NAS   CLOUDY    71  69  93 SE3       30.12R
6HR MIN TEMP:  69; 6HR MAX TEMP:  71;

RAYMOND        CLOUDY    75  70  83 SE5       30.06R
VICKSBURG      PTSUNNY   74  71  91 S7        30.05R
6HR MIN TEMP:  72; 6HR MAX TEMP:  74;

$$

MSZ059>079-291300-
SOUTH MISSISSIPPI

CITY           SKY/WX    TMP DP  RH WIND       PRES   REMARKS
BROOKHAVEN     PTSUNNY   73  73 100 SE5       30.09R
HATTIESBURG    FOG       69  68  96 CALM      30.09R VSB 1/4
6HR MIN TEMP:  68; 6HR MAX TEMP:  72;

MCCOMB         CLOUDY    73  72  96 SE5       30.07R
6HR MIN TEMP:  72; 6HR MAX TEMP:  74;

NATCHEZ        CLOUDY    72  70  94 S6        30.06R
6HR MIN TEMP:  72; 6HR MAX TEMP:  75;

PINE BELT      PTSUNNY   70  66  88 CALM      30.09R
6HR MIN TEMP:  68; 6HR MAX TEMP:  72;

$$

MSZ080>082-291300-
COASTAL MISSISSIPPI

CITY           SKY/WX    TMP DP  RH WIND       PRES   REMARKS
BAY ST LOUIS   SUNNY     72  66  83 MISG      30.06
BILOXI         SUNNY     75  72  92 NE6       30.06R
6HR MIN TEMP:  74; 6HR MAX TEMP:  79;

PASCAGOULA     PTSUNNY   72  71  97 CALM      30.08R
6HR MIN TEMP:  67; 6HR MAX TEMP:  72; 6HR PCP: TRACE;

GULFPORT       MOSUNNY   73  71  93 CALM      30.06R
6HR MIN TEMP:  73; 6HR MAX TEMP:  79; 6HR PCP:  0.02;

$$



USA.gov is the U.S. government's official web portal to all federal, state and local government web resources and services.